Regional Weather Roundup
Issued by NWS

Home | Current Version | Previous Version | Text Only | Print | Product List | Glossary On
Versions: 1 2 3 4 5 6 7 8 9 10 11 12 13 14 15 16 17 18 19 20 21 22 23 24 25 26 27 28 29 30 31 32 33 34 35 36 37 38 39 40 41 42 43 44 45 46 47 48 49 50
000
ASUS44 KJAN 160503
RWRMS

MISSISSIPPI HOURLY WEATHER ROUNDUP
NATIONAL WEATHER SERVICE JACKSON MS
1200 AM CDT WED APR 16 2014

NOTE: "FAIR: INDICATES FEW OR NO CLOUDS BELOW 12,000 FEET WITH NO
SIGNIFICANT WEATHER AND/OR OBSTRUCTIONS TO VISIBILITY.

MSZ001>002-007>008-010>013-018>021-025>028-034>036-160600-
NORTHWEST MISSISSIPPI

CITY           SKY/WX    TMP DP  RH WIND       PRES   REMARKS
CLARKSDALE       N/A     39  36  87 CALM      30.27F
CLEVELAND      FAIR      42  33  71 E3        30.25F
GREENWOOD      CLEAR     38  34  85 CALM      30.26S
GREENVILLE     CLEAR     43  32  65 E6        30.25S
GRENADA        FAIR      34  30  86 CALM      30.26F
OLIVE BRANCH   CLEAR     36  32  87 CALM      30.27S
OXFORD         FAIR      32  28  86 CALM      30.28S
TUNICA         CLEAR     37  32  81 SE5       30.28S WCI  34
$$

MSZ003>006-009-014>017-022>024-029>033-037>039-160600-
NORTHEAST MISSISSIPPI

CITY           SKY/WX    TMP DP  RH WIND       PRES   REMARKS
BELMONT        FAIR      35  29  79 CALM      30.25R
COLUMBUS AFB   CLEAR     38  31  73 N2        30.25S
CORINTH        FAIR      36  32  87 CALM      30.27R
GOLDN TRIANGLE CLEAR     37  28  70 N6        30.26F WCI  33
STARKVILLE     FAIR      36  34  93 CALM      30.24F
TUPELO         CLEAR     37  28  70 N3        30.26R
$$

MSZ040-058-160600-
CENTRAL MISSISSIPPI

CITY           SKY/WX    TMP DP  RH WIND       PRES   REMARKS
JACKSON INTL   CLEAR     43  32  65 N8        30.22F
JACKSON HAWKNS CLEAR     43  30  60 N6        30.23F
MERIDIAN KEY   CLEAR     39  33  79 N5        30.22S
MERIDIAN NAS   CLEAR     41  29  62 N7        30.22F
RAYMOND        FAIR      37  32  81 CALM      30.23F
VICKSBURG      CLEAR     46  35  65 NE9       30.25S
$$

MSZ059>079-160600-
SOUTH MISSISSIPPI

CITY           SKY/WX    TMP DP  RH WIND       PRES   REMARKS
BROOKHAVEN     FAIR      37  34  87 CALM      30.24R
COLUMBIA       FAIR      37  34  87 MISG      30.21S
HATTIESBURG    CLEAR     45  34  65 N7        30.22S
MCCOMB         CLEAR     41  33  73 N5        30.21F
NATCHEZ          N/A     41  30  65 NE7       30.21F
PINE BELT      CLEAR     43  30  61 N6        30.22R
$$

MSZ080>082-160600-
COASTAL MISSISSIPPI

CITY           SKY/WX    TMP DP  RH WIND       PRES   REMARKS
BILOXI         CLEAR     47  35  62 N10       30.18S
PASCAGOULA     CLEAR     45  33  63 N8        30.18S
GULFPORT       CLEAR     48  34  58 N9        30.18S
$$



USA.gov is the U.S. government's official web portal to all federal, state and local government web resources and services.